Location: Gallinara
(44.0333°N, 8.2333°E)
Time: 10:21:57
(UTC+00:00)

Cosmos 2061 Rocket - Pass Details

Date: 25 September 2020
Orbit: 966 x 1012 km, 82.9° (Epoch: 24 October)

Event Time Altitude Azimuth Distance (km) Brightness Sun altitude
Rises 04:26:34 0° 347° (NNW) 3,756 7.0 -10.1°
Reaches altitude 10° 04:29:11 10° 342° (NNW) 2,802 6.3 -9.6°
Maximum altitude 04:35:22 51° 269° (W) 1,260 4.2 -8.5°
Drops below altitude 10° 04:41:29 10° 196° (SSW) 2,776 6.2 -7.4°
Sets 04:44:04 0° 191° (S) 3,717 6.9 -6.9°
